Wind_Speed
38 39 37 36 36 33 31 31 32 32 32 30 29 30 31 32 34 34 35 38 38 35 33 32 31 30 28 26 26 24 21 21 21 18 15 14 14 13 14 17 19 19 18 17 16 14 13 12 12 11 11 13 16 19 22 24 24 24 24 25 25 25 23
34 37 37 36 35 34 33 30 29 29 28 29 30 31 31 32 33 33 31 30 31 31 30 26 25 25 22 20 22 23 25 26 25 21 18 17 14 13 13 15 18 20 19 18 17 16 14 13 13 13 12 13 15 18 21 23 24 24 24 26 27 26 25
31 35 35 35 35 36 37 34 30 29 26 26 30 32 33 32 32 31 28 26 25 23 20 17 16 17 15 12 14 17 24 30 29 24 21 21 19 16 14 14 15 17 19 19 18 16 15 14 14 14 14 13 13 15 17 20 23 25 26 27 29 28 26
30 32 33 33 34 35 37 35 33 33 30 28 29 32 32 31 30 28 26 23 18 14 15 19 20 20 20 16 13 14 19 23 24 24 24 25 24 19 15 14 12 13 17 19 19 18 17 15 16 16 15 13 12 13 14 17 20 24 25 26 26 27 27
30 32 32 32 34 34 35 34 33 34 34 33 32 32 32 32 30 28 26 22 17 16 20 24 24 26 28 25 18 15 16 17 17 22 25 24 24 23 21 18 14 13 17 20 20 20 20 18 18 18 16 14 13 13 13 15 17 20 22 23 23 24 26
31 32 33 33 34 35 35 37 37 36 36 36 35 33 34 34 32 31 29 25 23 24 25 25 25 25 27 27 22 15 14 16 15 18 23 24 24 24 22 19 17 15 16 20 22 22 21 19 18 18 16 15 14 13 13 14 16 17 19 21 21 22 24
32 32 34 34 35 35 36 38 40 39 38 39 39 36 36 35 32 32 31 30 31 31 28 26 23 20 20 23 21 16 13 14 15 15 18 23 25 24 20 18 19 17 14 17 21 22 21 19 18 18 18 17 15 14 13 14 16 18 20 21 21 22 23
33 33 35 37 37 37 38 38 39 40 39 40 41 39 37 35 31 29 30 34 36 35 32 30 23 19 21 24 24 23 21 20 21 19 17 18 21 23 22 23 24 22 17 16 18 20 20 19 19 20 20 19 18 16 13 13 15 18 21 22 23 22 22
37 37 37 39 39 40 41 40 39 42 43 43 42 41 38 35 31 28 30 34 36 36 38 36 27 22 24 27 29 29 26 25 25 24 21 19 19 21 25 28 29 28 23 19 19 20 18 18 20 21 21 21 20 17 15 14 15 17 19 20 21 22 23
41 42 40 41 42 42 43 43 42 44 47 46 43 42 41 39 35 31 32 36 36 36 40 38 31 27 27 29 31 30 27 24 22 21 22 22 20 21 25 29 30 30 28 24 22 22 20 19 20 21 21 21 21 19 17 16 17 17 18 18 19 20 22
42 47 47 45 45 44 44 45 45 45 49 49 46 45 44 42 39 34 35 39 39 38 41 39 33 29 30 33 33 31 29 23 18 19 23 27 27 24 26 29 30 30 29 27 26 25 24 23 22 22 22 23 23 21 18 18 19 18 18 18 18 19 20
42 48 51 50 48 47 46 46 47 47 50 50 48 47 46 45 42 38 38 42 43 42 43 41 34 28 30 36 35 34 33 26 22 23 26 31 35 34 33 35 35 34 33 32 31 29 27 27 25 23 23 24 25 24 21 21 21 19 18 18 18 18 19
42 45 52 54 53 51 48 48 49 50 52 52 51 50 49 48 46 42 42 46 48 46 45 43 37 30 31 36 36 36 37 33 30 30 28 28 33 36 37 39 39 38 37 37 37 35 33 32 30 28 27 27 27 26 25 24 23 21 21 19 18 17 17
44 44 49 55 57 57 53 50 51 53 53 53 54 53 52 52 49 46 46 49 51 51 48 45 41 35 33 36 38 37 39 39 36 34 33 30 30 34 37 40 40 40 39 39 39 39 38 37 36 34 33 31 30 29 28 27 26 25 24 22 20 18 17
49 48 49 53 58 62 60 54 52 53 54 54 55 56 56 55 54 51 49 49 52 54 52 48 45 41 37 37 38 37 38 42 40 36 33 31 30 34 38 41 42 42 41 41 40 40 41 40 39 38 37 36 35 34 33 32 30 29 27 24 23 21 19
51 51 52 54 57 61 63 59 54 52 54 55 56 58 58 58 58 56 53 51 53 56 56 52 49 47 41 38 38 36 34 40 43 39 35 33 31 33 37 42 44 43 41 42 42 41 41 41 40 40 40 40 39 39 38 36 35 33 30 27 25 23 22
50 50 53 56 56 58 61 62 60 56 56 57 58 59 60 61 61 61 58 56 54 56 59 56 53 51 46 42 41 36 32 38 47 45 39 37 36 33 35 40 44 45 44 43 44 44 43 42 41 41 41 42 41 40 40 39 38 36 33 31 29 26 25
42 42 47 54 58 57 56 60 65 65 61 60 61 62 62 63 63 64 63 58 55 57 60 60 57 54 51 48 47 42 35 36 44 47 43 41 40 38 38 41 43 46 48 47 47 46 45 43 41 39 40 42 43 41 39 38 37 36 34 32 30 27 24
32 32 36 47 56 57 54 58 66 71 69 66 65 65 65 64 64 67 66 62 58 58 60 62 61 58 55 53 51 49 45 38 37 42 44 44 43 42 44 46 45 44 47 48 47 46 43 42 41 39 37 38 40 40 38 37 36 35 33 32 29 27 23
29 28 30 38 48 54 56 58 64 70 73 71 70 69 69 66 64 65 68 68 65 61 61 63 65 62 59 57 55 55 55 47 39 40 46 46 45 45 45 45 44 44 44 44 44 44 41 39 41 42 38 35 36 37 38 38 38 37 35 33 30 27 24
28 30 29 30 37 49 55 56 59 66 72 73 74 75 74 72 69 65 65 70 71 68 64 64 66 67 63 60 58 59 60 56 46 43 48 50 48 47 47 43 41 42 43 41 40 42 41 39 41 43 40 36 36 38 38 38 39 39 37 35 31 28 25
28 30 29 27 31 41 46 47 52 61 67 71 74 76 77 78 76 69 64 67 72 74 72 67 66 69 68 63 61 61 61 60 53 47 48 51 52 51 50 47 44 42 40 38 36 38 41 42 42 43 41 38 39 40 39 38 39 41 39 35 31 28 27
29 31 30 28 28 32 34 38 44 53 61 68 72 75 77 79 79 76 70 68 70 74 76 73 67 68 71 68 64 63 63 61 58 54 50 51 55 56 53 51 49 46 43 42 40 40 42 43 43 43 41 39 39 41 43 42 40 39 38 36 32 30 29
27 29 30 28 27 28 31 34 38 44 54 62 66 71 76 77 78 77 75 74 73 73 76 78 73 69 72 73 68 66 66 64 62 61 57 53 53 55 55 55 54 52 51 50 47 45 44 44 43 42 40 38 37 38 42 45 43 39 37 37 35 33 33
23 25 27 26 26 28 31 32 34 38 46 55 61 66 72 75 76 76 76 77 78 76 75 78 78 74 72 74 73 70 69 68 66 64 63 61 56 53 53 56 56 55 55 53 51 49 48 46 44 43 40 38 36 32 30 35 40 41 38 37 36 36 35
21 22 23 24 25 27 29 30 32 36 41 49 57 63 67 70 73 75 76 76 78 80 78 78 80 80 76 74 75 75 74 73 71 68 66 67 65 59 55 56 58 58 57 54 52 53 52 49 48 47 43 39 36 32 27 28 33 37 36 34 34 34 35
21 21 22 23 24 24 26 28 31 34 39 44 51 58 62 66 69 73 76 77 76 79 82 80 78 81 81 78 76 77 77 76 75 74 70 67 68 67 61 57 56 57 58 56 54 54 52 50 50 50 47 42 37 33 30 30 33 35 35 34 33 33 33
19 20 21 22 23 23 25 27 29 33 37 40 44 50 56 62 66 69 74 77 77 77 81 82 79 79 82 82 79 78 79 78 77 77 74 71 71 72 68 62 57 55 57 57 56 55 53 51 50 50 49 46 41 35 32 34 37 37 37 37 36 34 33
16 18 21 22 23 23 25 27 29 30 34 38 40 43 47 54 62 67 70 75 78 77 79 82 81 79 80 82 80 78 79 79 78 76 75 74 75 76 74 68 61 58 58 58 57 56 56 53 52 51 50 48 45 39 35 36 39 40 40 40 39 36 35
14 16 18 21 23 24 26 28 29 30 32 35 37 38 40 45 53 61 66 72 76 78 79 81 82 81 80 81 80 78 78 79 78 76 74 73 75 77 76 71 64 59 59 60 59 57 57 56 54 53 52 50 48 43 39 39 41 42 42 42 41 39 37
15 15 16 18 21 24 27 28 30 32 33 34 35 36 38 40 45 52 60 67 73 77 79 80 82 82 81 81 81 78 77 78 79 78 76 73 73 75 76 74 69 62 58 59 60 58 56 56 56 53 52 51 49 47 45 43 42 42 42 42 42 41 39
16 16 16 18 21 24 27 29 31 33 34 36 37 37 38 39 42 46 53 60 68 74 78 80 82 82 81 82 82 80 78 78 80 81 80 76 73 72 73 74 73 68 61 58 58 58 57 57 56 54 52 50 49 48 48 47 45 43 41 42 43 43 42
17 17 17 18 20 23 27 29 31 33 35 37 39 41 40 41 41 43 47 53 60 67 74 79 82 83 82 82 82 82 80 79 80 83 83 81 78 74 72 71 71 69 66 62 59 58 59 59 59 57 54 51 49 48 48 48 48 45 44 44 45 45 44
15 16 17 19 21 23 27 29 30 32 34 37 39 41 42 42 42 42 44 49 54 60 67 73 78 82 84 83 83 83 82 80 80 82 84 85 84 80 76 73 70 66 65 65 64 61 59 60 60 59 56 52 49 47 46 47 48 47 47 46 47 47 47
13 13 14 16 18 22 26 28 29 29 31 33 36 39 42 42 42 42 43 45 50 56 60 66 72 77 82 84 84 83 82 81 81 81 82 84 86 85 80 76 73 69 66 66 67 66 63 60 60 59 57 53 49 46 46 46 47 47 48 48 48 49 49
15 14 14 15 16 18 22 26 28 27 27 28 30 34 39 42 43 43 43 44 47 52 56 60 64 69 75 82 85 84 83 82 81 81 82 83 84 84 82 78 75 73 70 68 68 68 66 62 60 59 57 53 49 46 44 44 44 44 45 48 49 50 50
16 17 17 17 17 18 20 23 26 26 25 24 26 28 32 38 42 44 45 45 45 48 51 55 59 62 67 74 81 84 84 83 81 80 81 83 84 83 82 80 78 77 75 71 68 67 66 64 62 60 57 54 50 48 45 44 42 42 42 45 48 50 50
Wind_Direction
231 229 222 220 222 220 223 229 232 232 232 231 229 228 231 234 235 231 223 221 224 227 228 230 234 241 245 244 242 243 242 240 240 240 242 236 224 219 221 221 221 221 224 227 223 217 212 210 213 215 218 222 218 210 204 204 206 203 198 200 204 206 206
230 229 224 221 221 218 216 220 227 231 230 229 228 226 226 229 233 233 230 227 227 227 228 231 236 239 242 245 247 244 240 243 248 248 241 233 225 221 221 220 221 222 223 224 221 216 213 211 212 214 217 221 221 215 208 204 205 205 202 200 203 205 205
225 227 226 223 221 220 219 218 219 221 219 218 223 226 225 225 229 231 229 228 229 228 221 213 213 214 213 222 236 236 234 240 248 249 241 230 221 220 224 218 216 222 224 223 220 214 211 210 210 216 220 223 222 216 210 206 205 207 206 203 202 203 204
218 222 224 220 218 219 218 216 213 212 210 206 211 220 223 223 224 225 224 222 217 207 193 185 187 193 194 198 215 224 223 230 239 240 238 233 224 221 221 213 214 228 226 222 219 214 212 210 209 216 221 222 222 214 206 206 207 210 211 209 206 205 204
212 217 218 215 216 215 208 206 207 206 205 204 206 214 219 222 219 215 214 205 189 193 199 194 198 205 205 203 204 211 216 218 222 226 231 232 226 221 220 222 233 239 223 215 215 213 212 210 208 212 217 218 219 213 201 201 206 211 214 213 211 210 209
210 214 216 212 213 215 208 205 206 205 205 207 209 212 219 223 220 216 211 192 185 203 208 204 210 216 216 215 210 203 207 211 212 218 224 226 223 220 218 223 230 225 212 209 210 210 211 210 207 209 215 218 218 213 201 195 197 202 209 211 209 209 212
210 212 215 212 210 213 210 206 206 208 211 214 213 212 217 222 221 220 214 196 196 205 201 203 216 219 217 217 209 192 188 200 204 207 217 223 224 220 211 208 210 205 203 206 205 207 210 211 208 206 211 218 220 217 207 195 191 193 199 204 204 204 207
206 206 210 210 209 211 210 207 206 206 207 211 212 209 212 215 211 209 206 201 204 207 203 207 214 215 214 208 201 199 195 198 203 202 208 222 227 220 208 202 203 201 203 206 202 204 208 209 208 206 209 215 220 221 215 202 197 196 196 198 199 199 201
199 199 205 206 206 208 207 204 203 202 203 207 209 206 207 208 201 195 194 195 201 204 205 208 209 213 215 208 208 213 207 202 205 203 201 208 221 221 210 206 207 207 210 209 202 200 201 205 208 207 208 213 217 221 219 211 206 203 201 199 198 198 198
200 198 202 203 203 204 205 203 201 201 203 205 206 204 203 205 200 194 190 187 192 198 200 202 206 210 211 207 209 216 215 209 212 216 210 202 208 217 213 209 211 214 216 212 207 206 205 207 210 209 208 210 213 217 217 212 206 202 202 202 200 201 201
207 202 203 204 204 203 205 205 203 203 203 204 205 203 203 203 199 192 187 186 191 197 196 197 200 204 207 207 205 207 212 210 207 217 215 202 200 206 208 209 210 213 216 213 209 212 212 211 211 210 209 208 210 214 214 210 204 200 202 202 201 202 204
215 208 206 207 206 205 205 205 205 204 204 205 206 204 203 203 197 189 186 189 196 199 195 193 195 198 205 210 206 202 206 207 199 201 203 198 199 201 202 205 206 206 209 207 204 205 206 207 207 209 210 210 210 211 211 209 206 203 205 204 200 201 203
223 215 212 210 208 207 205 204 204 203 204 206 207 205 204 202 197 189 185 191 200 202 196 192 195 198 203 208 208 203 202 205 205 205 207 206 204 202 201 203 203 203 203 202 201 199 198 199 200 203 208 212 213 211 209 209 209 208 207 204 199 197 198
228 222 218 214 211 209 206 204 203 202 203 206 208 207 205 202 197 191 188 194 202 203 198 194 197 201 199 201 209 209 203 203 205 209 217 223 221 214 209 206 203 202 202 202 203 202 201 200 199 201 204 207 211 212 210 210 211 211 209 205 202 199 197
230 227 223 218 214 211 208 206 205 203 204 207 209 208 207 204 200 194 192 197 202 202 199 196 198 200 197 197 207 212 206 200 199 203 211 219 224 222 216 210 205 203 203 204 204 204 204 203 203 204 204 205 206 208 208 209 210 211 210 207 205 202 201
232 230 228 223 218 213 210 209 209 207 206 207 209 209 207 206 202 197 196 200 203 202 200 197 197 200 199 197 202 207 203 197 196 199 202 206 212 216 216 213 208 205 204 205 206 206 205 205 205 207 207 208 208 208 207 207 208 209 209 208 207 205 205
235 235 232 227 222 216 211 209 211 213 211 208 208 208 208 207 204 201 200 200 201 202 201 197 197 201 202 200 201 201 198 194 193 196 200 203 205 208 214 216 212 207 204 206 208 208 207 207 208 209 210 210 211 212 211 209 208 207 206 206 206 207 209
240 241 237 231 225 218 212 210 212 216 217 213 211 210 210 208 205 205 204 199 197 202 204 199 197 201 203 202 203 204 202 196 193 193 197 202 204 208 213 216 215 210 205 206 209 210 209 209 210 213 215 213 211 214 217 217 214 211 208 206 206 208 210
246 246 244 237 229 219 212 211 213 216 218 217 215 214 214 211 207 206 206 202 199 203 206 202 200 201 202 203 205 206 208 208 203 199 200 201 204 210 213 213 214 212 208 208 210 212 211 211 212 214 217 215 211 211 216 221 221 217 213 209 209 210 210
250 249 247 242 233 222 215 214 214 215 216 217 216 216 217 216 213 209 206 204 203 205 206 205 204 203 204 204 204 205 207 211 210 206 207 207 207 210 212 211 213 214 214 214 215 216 214 215 217 218 217 219 218 214 214 218 222 222 218 213 210 210 209
251 249 247 245 237 226 220 220 219 216 215 216 217 217 217 217 218 216 209 205 206 207 208 207 206 206 206 206 205 204 206 209 210 206 206 208 208 207 209 211 211 211 213 215 220 221 217 215 220 222 220 220 222 220 216 216 220 224 222 216 211 209 208
252 252 249 246 240 230 224 226 226 220 217 217 217 218 218 218 219 219 214 207 206 208 210 210 207 206 208 209 209 207 206 208 210 209 205 205 205 205 208 210 209 209 212 217 223 225 219 215 219 222 221 220 221 221 220 218 219 222 221 216 212 210 211
252 252 249 246 241 233 228 230 229 224 220 219 218 218 219 218 219 219 217 212 209 208 210 213 211 208 208 210 211 210 209 209 211 211 209 205 204 205 208 210 210 212 218 226 232 230 224 222 223 223 220 219 220 222 221 218 217 217 216 213 211 211 215
253 251 248 245 240 232 227 228 229 227 223 222 221 220 219 218 219 219 218 216 214 210 210 213 214 212 210 209 210 211 211 211 212 212 211 209 206 207 208 209 212 217 223 230 236 232 226 225 227 225 220 217 219 223 221 217 216 214 212 211 210 210 216
256 250 245 241 238 234 229 228 229 228 226 223 223 222 221 219 219 219 219 218 217 215 213 213 214 216 213 209 209 211 212 212 213 213 214 213 213 213 212 211 215 222 228 234 237 231 224 224 226 225 221 218 220 223 218 212 210 208 209 212 211 211 214
256 248 241 239 239 238 235 232 231 229 228 226 224 223 223 221 220 220 220 219 218 218 218 216 214 216 217 214 210 210 212 213 213 213 215 216 216 218 220 220 223 229 235 237 235 228 224 223 224 224 223 222 222 222 216 207 202 201 204 209 211 213 216
254 244 238 239 242 241 237 235 234 230 229 228 225 223 224 223 221 221 221 221 220 219 220 221 218 216 218 219 215 211 211 213 214 214 215 216 216 218 222 224 227 233 237 236 231 226 223 222 223 224 224 223 221 218 214 211 206 203 204 207 209 214 220
256 246 241 240 242 240 236 234 234 231 229 229 227 225 224 224 224 223 222 222 222 220 220 223 223 219 218 220 220 216 212 213 215 215 215 215 216 218 221 223 224 227 230 228 225 224 223 223 224 225 226 224 220 217 215 213 211 209 208 207 207 212 219
261 252 247 244 241 239 236 234 234 233 231 230 228 226 225 225 225 226 224 223 223 222 221 222 224 224 221 220 222 220 216 214 214 215 215 215 216 218 221 222 220 219 220 222 223 223 224 225 225 226 227 225 222 220 216 210 207 206 205 205 205 208 214
267 259 253 249 245 242 238 235 234 234 234 234 232 231 230 228 227 227 226 225 225 225 223 222 224 225 225 223 223 222 220 217 216 215 215 214 215 217 220 221 217 214 215 218 221 222 223 225 225 226 229 229 227 223 216 207 202 201 202 203 205 205 209
275 269 261 255 250 246 243 240 238 237 237 237 236 235 234 232 229 227 227 226 226 226 226 224 224 226 226 225 224 223 222 220 218 217 215 214 215 217 219 220 219 216 214 215 217 219 222 225 226 226 227 229 227 223 216 210 205 204 204 205 205 204 205
280 276 270 264 259 255 251 247 244 241 239 237 237 236 234 233 231 230 229 227 227 227 228 227 226 226 227 227 226 225 223 221 220 219 217 217 217 217 219 220 221 221 220 217 216 218 221 224 225 226 226 227 227 224 221 218 215 212 209 207 206 204 204
287 281 276 270 266 263 260 256 253 248 244 240 238 237 236 235 234 234 233 230 228 228 228 228 227 226 226 227 227 226 225 224 222 220 219 219 219 219 220 221 222 223 224 222 221 222 223 223 225 227 227 227 227 225 224 223 222 218 213 210 209 207 206
301 291 283 274 269 267 267 264 261 256 251 247 243 241 239 238 236 236 236 234 232 230 229 230 229 227 226 227 227 226 226 226 225 222 220 220 221 222 222 223 224 224 225 224 224 225 225 225 226 227 228 226 225 225 224 223 222 220 216 213 212 211 210
323 316 305 292 282 275 272 269 267 263 257 252 248 245 242 239 237 236 236 235 234 232 231 231 230 229 227 227 227 227 227 228 227 225 222 221 222 223 224 225 227 227 226 226 226 225 225 224 223 225 227 227 225 224 223 222 221 220 218 216 215 214 213
329 330 328 322 314 301 288 280 275 271 266 259 253 248 243 240 238 236 234 233 232 233 233 232 232 230 228 227 227 227 227 227 227 226 225 224 223 224 225 227 229 229 228 227 227 226 224 222 221 223 227 227 223 220 219 219 220 219 219 219 218 217 217
330 329 328 328 328 324 312 296 285 279 274 267 260 253 247 242 239 237 235 233 232 233 234 234 233 231 229 228 227 227 227 228 227 226 225 225 225 225 226 227 229 230 229 227 226 225 223 222 222 223 225 224 220 217 216 218 220 221 221 220 219 219 220
Height
5809 5812 5814 5815 5818 5821 5823 5825 5828 5831 5834 5838 5840 5842 5844 5846 5847 5849 5853 5856 5859 5863 5866 5868 5870 5871 5872 5874 5877 5878 5880 5881 5883 5885 5888 5889 5890 5891 5893 5894 5896 5899 5901 5903 5905 5907 5908 5908 5909 5909 5910 5911 5912 5913 5914 5916 5918 5920 5922 5925 5927 5928 5931
5806 5807 5809 5812 5816 5818 5819 5822 5825 5828 5831 5833 5834 5837 5839 5841 5842 5845 5850 5854 5858 5861 5864 5867 5869 5870 5871 5872 5873 5875 5877 5878 5880 5883 5886 5888 5889 5889 5891 5892 5894 5896 5898 5900 5903 5905 5906 5907 5908 5908 5909 5910 5911 5911 5913 5914 5916 5919 5921 5923 5925 5926 5929
5802 5802 5806 5810 5813 5814 5816 5817 5819 5822 5825 5827 5829 5831 5834 5837 5838 5842 5848 5852 5855 5859 5863 5865 5866 5867 5869 5869 5871 5872 5873 5875 5877 5880 5883 5885 5887 5888 5889 5891 5892 5894 5896 5899 5901 5903 5904 5906 5906 5907 5908 5909 5910 5911 5912 5914 5915 5917 5919 5920 5922 5924 5927
5797 5798 5802 5806 5808 5811 5814 5813 5813 5815 5818 5821 5824 5826 5829 5833 5836 5841 5845 5849 5854 5857 5858 5858 5858 5858 5860 5862 5865 5868 5869 5872 5875 5878 5880 5882 5885 5887 5888 5889 5891 5892 5894 5896 5899 5901 5902 5904 5905 5906 5907 5909 5910 5910 5911 5912 5914 5915 5917 5920 5922 5924 5926
5794 5795 5798 5802 5803 5807 5809 5809 5808 5809 5812 5815 5819 5823 5826 5829 5833 5838 5842 5848 5853 5851 5849 5850 5851 5851 5854 5856 5859 5863 5866 5868 5871 5874 5877 5879 5882 5884 5886 5888 5889 5891 5892 5893 5896 5898 5900 5901 5903 5905 5906 5908 5909 5909 5910 5911 5912 5914 5917 5919 5922 5924 5926
5792 5793 5795 5797 5800 5802 5804 5804 5804 5805 5808 5811 5816 5821 5823 5825 5830 5833 5838 5846 5846 5841 5841 5845 5846 5848 5851 5854 5856 5859 5862 5865 5868 5871 5873 5876 5878 5881 5884 5886 5888 5889 5890 5891 5893 5895 5897 5899 5901 5904 5905 5907 5908 5908 5909 5909 5911 5913 5915 5917 5919 5921 5924
5790 5792 5792 5794 5796 5798 5799 5799 5800 5803 5807 5810 5813 5817 5819 5822 5826 5829 5835 5841 5838 5835 5840 5843 5842 5845 5848 5851 5853 5854 5857 5861 5864 5868 5870 5872 5875 5878 5881 5884 5885 5887 5888 5889 5891 5893 5896 5898 5900 5902 5904 5905 5906 5907 5907 5908 5909 5911 5912 5914 5916 5918 5921
5787 5788 5787 5790 5793 5794 5793 5795 5798 5802 5804 5806 5808 5811 5815 5817 5820 5824 5829 5833 5832 5833 5838 5839 5838 5841 5842 5845 5847 5848 5850 5854 5858 5863 5867 5870 5873 5876 5879 5881 5883 5884 5886 5887 5889 5892 5894 5896 5898 5900 5902 5903 5905 5905 5906 5907 5908 5909 5910 5911 5913 5915 5918
5783 5783 5783 5785 5788 5788 5788 5791 5795 5798 5799 5800 5803 5807 5810 5813 5816 5820 5824 5827 5828 5830 5833 5834 5835 5836 5837 5840 5843 5843 5846 5851 5854 5859 5862 5866 5870 5873 5875 5878 5880 5881 5883 5885 5887 5890 5892 5895 5896 5898 5899 5901 5903 5904 5905 5906 5907 5908 5909 5910 5911 5913 5915
5777 5778 5778 5780 5781 5782 5784 5787 5790 5792 5794 5796 5799 5803 5806 5809 5813 5816 5820 5823 5825 5826 5828 5830 5831 5831 5832 5836 5838 5841 5845 5850 5855 5858 5860 5863 5867 5870 5873 5875 5877 5879 5880 5882 5885 5887 5890 5892 5894 5896 5897 5899 5901 5903 5904 5905 5905 5906 5908 5909 5910 5911 5913
5770 5771 5772 5773 5775 5778 5781 5783 5785 5788 5790 5793 5796 5799 5802 5806 5810 5813 5817 5821 5821 5821 5823 5827 5827 5827 5828 5831 5834 5839 5844 5849 5853 5856 5857 5859 5860 5863 5866 5869 5871 5874 5876 5878 5881 5884 5887 5889 5891 5893 5895 5897 5899 5901 5902 5903 5904 5905 5906 5907 5908 5910 5911
5762 5765 5766 5766 5769 5773 5777 5779 5781 5784 5787 5789 5792 5796 5799 5802 5806 5809 5813 5816 5815 5814 5819 5823 5824 5824 5825 5826 5830 5836 5842 5847 5850 5850 5851 5852 5852 5854 5857 5860 5863 5866 5868 5871 5874 5877 5881 5884 5887 5889 5892 5894 5896 5898 5899 5900 5901 5903 5904 5906 5907 5908 5909
5756 5759 5761 5762 5764 5769 5772 5774 5776 5779 5782 5784 5788 5792 5795 5797 5801 5804 5807 5809 5807 5808 5814 5819 5820 5821 5822 5824 5828 5832 5836 5841 5846 5847 5847 5848 5849 5850 5851 5854 5858 5860 5863 5865 5867 5869 5872 5876 5879 5883 5886 5890 5892 5894 5896 5898 5899 5901 5902 5904 5905 5906 5907
5749 5753 5754 5756 5759 5762 5765 5767 5769 5772 5776 5779 5783 5787 5790 5793 5797 5799 5800 5801 5801 5804 5810 5814 5815 5817 5819 5822 5827 5829 5829 5833 5839 5843 5845 5847 5849 5850 5850 5852 5854 5857 5859 5862 5864 5866 5868 5870 5873 5876 5879 5883 5887 5890 5892 5894 5896 5898 5900 5901 5902 5903 5904
5742 5744 5746 5748 5750 5754 5759 5762 5764 5767 5771 5775 5778 5781 5784 5788 5791 5793 5794 5795 5797 5801 5806 5810 5812 5813 5815 5819 5824 5826 5824 5827 5832 5836 5839 5843 5846 5848 5849 5850 5852 5854 5856 5859 5861 5863 5865 5867 5869 5871 5873 5876 5879 5882 5885 5889 5892 5894 5896 5898 5899 5901 5902
5734 5735 5736 5739 5743 5748 5756 5761 5764 5765 5767 5770 5772 5774 5778 5780 5783 5787 5788 5789 5792 5796 5800 5805 5808 5810 5812 5815 5820 5823 5822 5823 5827 5830 5833 5837 5840 5844 5846 5848 5849 5852 5853 5855 5857 5860 5862 5865 5867 5868 5870 5872 5874 5876 5879 5882 5885 5888 5892 5895 5896 5898 5899
5725 5725 5725 5730 5735 5742 5751 5759 5760 5759 5758 5761 5764 5766 5769 5771 5775 5780 5781 5783 5789 5793 5796 5800 5803 5805 5808 5811 5815 5820 5820 5818 5819 5824 5828 5831 5835 5839 5842 5844 5846 5848 5850 5851 5852 5855 5859 5862 5864 5866 5867 5868 5871 5875 5876 5878 5881 5884 5887 5890 5893 5895 5896
5716 5716 5717 5721 5726 5736 5748 5753 5751 5749 5749 5752 5756 5758 5760 5765 5771 5774 5776 5781 5788 5790 5791 5796 5798 5801 5804 5807 5811 5815 5817 5815 5813 5817 5822 5826 5830 5833 5836 5838 5841 5842 5844 5846 5847 5851 5855 5858 5861 5864 5866 5865 5866 5871 5876 5879 5881 5883 5886 5888 5890 5893 5896
5709 5710 5711 5712 5719 5732 5743 5744 5740 5739 5741 5744 5748 5751 5754 5759 5764 5767 5771 5779 5784 5784 5786 5791 5794 5796 5799 5802 5806 5810 5814 5815 5813 5813 5817 5820 5823 5827 5830 5833 5836 5838 5840 5842 5844 5848 5853 5856 5856 5859 5865 5866 5864 5867 5873 5877 5881 5884 5886 5887 5890 5892 5894
5705 5706 5706 5707 5714 5726 5732 5730 5729 5730 5733 5737 5741 5744 5748 5752 5755 5758 5764 5773 5777 5778 5781 5785 5788 5790 5792 5795 5800 5803 5808 5811 5810 5809 5811 5814 5818 5821 5824 5827 5831 5835 5837 5840 5842 5845 5850 5854 5852 5853 5861 5866 5865 5864 5867 5872 5876 5881 5883 5885 5887 5890 5892
5701 5701 5702 5704 5708 5715 5720 5720 5719 5721 5725 5730 5733 5736 5740 5744 5747 5751 5757 5764 5769 5771 5774 5777 5780 5784 5786 5789 5792 5796 5800 5804 5805 5804 5805 5809 5813 5816 5819 5822 5826 5829 5833 5836 5839 5842 5847 5849 5849 5850 5856 5862 5863 5861 5863 5868 5872 5876 5880 5883 5885 5887 5889
5697 5697 5699 5701 5704 5708 5712 5712 5711 5715 5719 5722 5724 5728 5733 5737 5740 5745 5750 5756 5760 5763 5766 5768 5772 5777 5779 5782 5785 5789 5793 5797 5800 5801 5801 5803 5807 5811 5814 5817 5821 5824 5827 5831 5835 5838 5842 5843 5844 5846 5851 5856 5858 5859 5861 5866 5868 5871 5876 5881 5883 5884 5886
5693 5693 5695 5697 5700 5703 5706 5704 5704 5708 5711 5712 5716 5720 5724 5728 5734 5740 5745 5748 5752 5756 5758 5761 5765 5769 5771 5775 5779 5783 5787 5791 5794 5797 5798 5799 5801 5805 5808 5812 5816 5819 5822 5826 5829 5834 5837 5838 5839 5842 5846 5850 5853 5855 5857 5861 5865 5868 5873 5877 5879 5880 5881
5689 5689 5690 5693 5695 5697 5698 5698 5698 5701 5703 5706 5709 5711 5713 5720 5729 5735 5739 5743 5746 5749 5752 5754 5758 5761 5764 5768 5773 5777 5781 5784 5787 5791 5794 5795 5797 5800 5804 5807 5811 5815 5819 5821 5825 5829 5832 5833 5834 5836 5840 5845 5850 5851 5852 5856 5861 5866 5870 5872 5873 5875 5876
5685 5685 5686 5689 5691 5691 5692 5693 5695 5696 5697 5699 5701 5703 5707 5715 5722 5727 5732 5735 5739 5743 5746 5748 5752 5754 5757 5762 5767 5771 5775 5778 5781 5786 5789 5791 5794 5797 5799 5803 5806 5810 5814 5817 5821 5825 5828 5829 5830 5831 5835 5841 5847 5849 5850 5852 5856 5861 5865 5867 5868 5869 5871
5681 5682 5683 5685 5686 5687 5688 5690 5690 5692 5692 5692 5695 5699 5704 5710 5716 5719 5723 5727 5731 5736 5739 5741 5745 5747 5751 5756 5761 5765 5769 5772 5775 5779 5782 5785 5789 5792 5795 5799 5802 5806 5809 5813 5817 5820 5823 5825 5826 5828 5832 5838 5843 5847 5849 5850 5852 5855 5859 5862 5865 5867 5868
5678 5678 5679 5681 5682 5683 5684 5685 5686 5687 5687 5688 5691 5695 5699 5703 5708 5711 5714 5718 5723 5727 5730 5734 5738 5741 5743 5748 5754 5759 5762 5765 5768 5772 5775 5779 5783 5787 5790 5794 5798 5802 5805 5807 5811 5815 5818 5821 5823 5825 5830 5835 5839 5844 5847 5849 5850 5852 5855 5858 5861 5864 5866
5675 5675 5676 5677 5678 5678 5679 5680 5681 5682 5683 5684 5687 5690 5693 5697 5701 5703 5707 5711 5714 5718 5722 5725 5730 5735 5736 5739 5745 5751 5756 5759 5761 5765 5769 5773 5777 5781 5785 5788 5792 5796 5800 5802 5805 5809 5813 5816 5819 5821 5826 5831 5835 5840 5843 5845 5847 5849 5852 5854 5856 5859 5863
5672 5673 5673 5673 5674 5674 5675 5676 5677 5678 5680 5681 5683 5686 5689 5692 5694 5697 5701 5704 5706 5709 5714 5717 5722 5727 5730 5732 5736 5743 5748 5751 5754 5759 5763 5767 5771 5775 5778 5782 5785 5789 5793 5797 5800 5804 5807 5811 5814 5817 5821 5826 5831 5835 5838 5841 5843 5846 5848 5850 5852 5856 5859
5670 5670 5670 5671 5671 5671 5671 5672 5673 5674 5676 5678 5680 5682 5684 5686 5688 5690 5694 5697 5699 5701 5705 5709 5713 5718 5722 5725 5728 5734 5740 5743 5747 5752 5757 5762 5765 5769 5772 5776 5779 5782 5786 5791 5795 5798 5802 5805 5808 5812 5816 5820 5826 5830 5834 5836 5839 5841 5844 5846 5849 5851 5854
5668 5668 5668 5668 5668 5668 5667 5668 5669 5670 5671 5673 5675 5677 5678 5680 5682 5683 5686 5689 5692 5694 5696 5700 5704 5709 5713 5718 5721 5726 5732 5737 5739 5744 5749 5754 5759 5762 5765 5769 5773 5776 5779 5784 5788 5792 5796 5799 5803 5807 5811 5815 5820 5825 5829 5831 5834 5837 5839 5842 5845 5847 5850
5665 5665 5665 5665 5665 5664 5664 5664 5664 5665 5666 5668 5669 5671 5672 5674 5676 5677 5680 5682 5685 5687 5689 5692 5697 5701 5705 5709 5714 5719 5725 5730 5733 5737 5742 5747 5751 5755 5758 5762 5766 5770 5773 5777 5781 5785 5790 5793 5797 5801 5805 5809 5814 5819 5823 5825 5828 5832 5835 5838 5841 5843 5846
5662 5662 5662 5662 5661 5660 5659 5660 5660 5661 5661 5662 5663 5665 5666 5668 5670 5672 5674 5675 5677 5680 5682 5685 5689 5694 5698 5702 5706 5711 5717 5722 5726 5730 5735 5739 5744 5748 5752 5755 5759 5763 5767 5771 5775 5779 5784 5788 5791 5794 5799 5804 5808 5812 5817 5820 5823 5827 5830 5833 5836 5839 5841
5660 5659 5659 5659 5658 5657 5655 5654 5655 5655 5656 5656 5658 5659 5661 5662 5664 5666 5668 5669 5670 5672 5675 5677 5681 5687 5692 5695 5698 5704 5709 5714 5718 5724 5729 5733 5737 5741 5746 5749 5753 5757 5761 5765 5769 5773 5777 5781 5785 5789 5793 5798 5802 5807 5811 5815 5818 5821 5824 5827 5830 5833 5835
5659 5657 5656 5655 5654 5653 5651 5649 5649 5649 5649 5650 5652 5653 5654 5656 5658 5659 5661 5662 5664 5665 5667 5670 5673 5679 5685 5689 5692 5697 5702 5705 5710 5716 5722 5726 5730 5734 5739 5743 5747 5750 5755 5759 5763 5767 5771 5775 5779 5783 5787 5792 5797 5802 5806 5810 5813 5816 5819 5821 5824 5827 5829
5657 5655 5653 5652 5651 5649 5647 5645 5644 5643 5643 5644 5645 5646 5647 5648 5650 5651 5653 5655 5656 5658 5660 5663 5666 5671 5676 5681 5685 5690 5695 5698 5702 5708 5715 5719 5723 5728 5732 5736 5740 5744 5748 5753 5757 5761 5765 5770 5774 5778 5782 5787 5792 5797 5801 5804 5807 5810 5813 5816 5818 5821 5823
5654 5652 5651 5649 5648 5646 5644 5641 5639 5638 5637 5637 5638 5639 5640 5642 5643 5644 5646 5648 5650 5652 5654 5656 5659 5663 5667 5673 5677 5683 5688 5691 5695 5701 5707 5712 5716 5720 5724 5729 5733 5737 5742 5747 5751 5755 5759 5764 5768 5772 5777 5782 5786 5791 5795 5798 5801 5804 5807 5810 5813 5815 5818